Regional Weather Roundup
Issued by NWS Newport/Morehead, NC

Current Version | Previous Version | Text Only | Print | Product List | Glossary On
Versions: 1 2 3 4 5 6 7 8 9 10 11 12 13 14 15 16 17 18 19 20 21 22 23 24 25 26 27 28 29 30 31 32 33 34 35 36 37 38 39 40 41 42 43 44 45 46 47 48 49 50
274
ASUS42 KMHX 212012
RWRMHX
WEATHER ROUNDUP FOR EASTERN NORTH CAROLINA
NATIONAL WEATHER SERVICE NEWPORT/MOREHEAD CITY NC
400 PM EDT THU MAY 21 2015

NOTE: "FAIR" INDICATES FEW OR NO CLOUDS BELOW 12,000 FEET
WITH NO SIGNIFICANT WEATHER AND/OR OBSTRUCTIONS TO VISIBILITY

NCZ015>017-031-032-045>047-102-103-212100-
NORTH COAST

CITY           SKY/WX    TMP DP  RH WIND       PRES   REMARKS
EDENTON        PTSUNNY   78  69  73 S14G20    29.73F
ELIZABETH CITY PTSUNNY   76  69  79 SE14G24   29.73F
KITTY HAWK     MOCLDY    77  68  74 SE16G24   29.74F
MANTEO         PTSUNNY   77  69  77 S20G26    29.76F

$$

NCZ045>047-081-094-103-104-212100-
CENTRAL COAST

CITY           SKY/WX    TMP DP  RH WIND       PRES   REMARKS
FRISCO         PTSUNNY   80  70  71 SE14      29.78F
SWANQUARTER      N/A     79 N/A N/A S9G26     29.71F

$$

NCZ095-097-098-100-101-212100-
SOUTHERN COAST

CITY           SKY/WX    TMP DP  RH WIND       PRES   REMARKS
BEAUFORT       MOSUNNY   79  74  84 S15       29.75F
CEDAR ISLAND     N/A     81 N/A N/A SE9G21    29.79F
JACKSONVILLE   PTSUNNY   82  70  66 S15G25    29.74F
PINEY ISLAND   MOCLDY   N/A N/A N/A S15G24    29.74F
WILMINGTON     PTSUNNY   84  72  67 S16       29.74F


$$

NCZ011>013-027>030-043-044-078>080-089-090>093-098-212100-
COASTAL PLAIN

CITY           SKY/WX    TMP DP  RH WIND       PRES   REMARKS
AHOSKIE        CLOUDY    62  60  94 N14       29.79S
CLINTON        HVY RAIN  71  70  97 SW8G21    29.81R
ELIZABETHTOWN  LGT RAIN  73  72  95 NW6       29.76R
GOLDSBORO      LGT RAIN  73  70  88 N14       29.73R
GREENVILLE     TSTM      72  70  94 N7        29.80R
HAVELOCK       MOSUNNY   82  71  69 S14G25    29.75F
KENANSVILLE    CLOUDY    80  72  76 CALM      29.74R
KINSTON        LGT RAIN  75  70  83 NW7       29.74R
NEW BERN       PTSUNNY   85  69  58 S15G23    29.73F
RICHLANDS      PTSUNNY   84  70  61 S13G18    29.74R
ROCKY MOUNT    CLOUDY    67  64  90 N17G24    29.81R
WASHINGTON     PTSUNNY   81  70  70 S12G17    29.71F
WHITEVILLE     HVY RAIN  76  69  80 SW10G28   29.74R

$$

AMZ130-135-150-152-154-156-158-170-250-252-270-ANZ085-086-088-633-658-670-212100-
MARINE OBSERVATIONS

STATION/POSITION TIME  TEMP    WIND        PRES    WAVE   SWELL
                       AIR SEA DIR/SP/G            HT/PER HT/PER
                 (UTC) (F)     (DEG/KT/KT) (MB)    (FT/S) (FT/S)
CHESAPEAKE LIGHT 1900   65     130/ 24/ 26 1009.3
64 E VA BEACH    1950   66 62  130/ 16/ 17 1008.7    3/ 8   2/ 8
DUCK             1900   70 68  140/ 15/ 17 1008.1
2 E DUCK         1911      68                N/A     3/ 4
OREGON INLET     1900   75 69  140/ 13/ 20 1009.6
13E OREGON INLT  2000      66                N/A     4/ 5
HATTERAS CG      1900   76 72  150/ 14/ 18 1009.2
DIAMOND BUOY     1950   76 77  160/ 17/ 19 1008.6    4/ 5   2/ 8
CAPE LOOKOUT     2000   76     170/ 13/ 13 1007.4
BEAUFORT LAB     1900   77 74  180/ 10/ 11 1008.1
27 SE WRIGHTSVLE 1900   76 79  210/ 14/ 16   N/A
5 SE WRIGHTSVLE  1908   78 77  200/ 16/ 21 1008.2
225 S CAPE HAT   1950   75 75  210/ 12/ 14 1013.0    3/ 5   2/ 9
41 SE CHARLESTON 1950   77 76  230/ 17/ 21 1009.1    4/ 5   2/ 8

$$



USA.gov is the U.S. government's official web portal to all federal, state and local government web resources and services.